GW7331 Weather Reports


time (UTC)temp
F
wind
direction
speed
knots
gust
knots
rain 1hr
in
rain 24hr
in
rain mn
in
humidity
%
barometer
mb
20260505084554 51 0 0.0 0.0 0.00 0.00 0.00 95 1013.7
20260505083058 51 0 0.0 0.0 0.00 0.00 0.00 95 1013.6
20260505081552 51 0 0.0 0.0 0.00 0.00 0.00 94 1013.6
20260505080050 51 0 0.0 0.0 0.00 0.00 0.00 94 1013.6
20260505074537 51 0 0.0 0.0 0.00 0.00 0.00 94 1013.9
20260505073049 51 0 0.0 0.0 0.00 0.00 0.00 94 1013.7
20260505071545 51 0 0.0 0.0 0.00 0.00 0.00 94 1013.8
20260505070043 51 0 0.0 0.0 0.00 0.00 0.00 94 1014.0
20260505064537 51 0 0.0 0.0 0.00 0.00 0.00 94 1014.1
20260505063041 51 0 0.0 0.0 0.00 0.00 0.00 94 1014.5
20260505061542 51 0 0.0 0.0 0.00 0.00 0.00 93 1014.6
20260505060053 52 0 0.0 0.0 0.00 0.00 0.00 93 1014.9
20260505054541 52 0 0.0 0.0 0.00 0.00 0.00 93 1014.8
20260505053040 52 0 0.0 0.0 0.00 0.00 0.00 93 1015.1
20260505051537 52 0 0.0 0.0 0.00 0.00 0.00 92 1015.3
20260505041550 54 0 0.0 0.0 0.00 0.00 0.00 91 1015.3
20260505040046 54 0 0.0 0.0 0.00 0.00 0.00 90 1015.3
20260505034538 55 0 0.0 0.0 0.00 0.00 0.00 90 1015.3
20260505033036 55 0 0.0 0.0 0.00 0.00 0.00 89 1015.3
20260505031539 56 0 0.0 0.0 0.00 0.00 0.00 89 1015.4
20260505030051 56 0 0.0 0.0 0.00 0.00 0.00 89 1015.4
20260505024538 56 0 0.0 0.0 0.00 0.00 0.00 88 1015.2
20260505023037 56 0 0.0 0.0 0.00 0.00 0.00 87 1015.1
20260505021536 57 0 0.0 0.0 0.00 0.00 0.00 86 1014.9
20260505020040 58 0 0.0 0.0 0.00 0.00 0.00 84 1015.1
20260505014600 59 0 0.0 0.0 0.00 0.00 0.00 83 1015.1
20260505013047 60 0 0.0 0.0 0.00 0.00 0.00 80 1015.0
20260505011542 61 0 0.0 0.0 0.00 0.00 0.00 78 1015.3
20260505010048 63 0 0.0 0.0 0.00 0.00 0.00 75 1015.4
20260505004548 65 0 0.0 0.0 0.00 0.00 0.00 71 1015.5
20260505003053 68 0 0.0 0.9 0.00 0.00 0.00 64 1015.4
20260505001541 72 0 0.0 0.0 0.00 0.00 0.00 60 1015.3
20260505000037 74 190 0.0 4.3 0.00 0.00 0.00 56 1015.5
20260504234536 74 0 0.0 3.5 0.00 0.00 0.00 54 1015.6
20260504233037 74 214 1.7 5.2 0.00 0.00 0.00 50 1015.9
20260504231539 75 185 0.9 4.3 0.00 0.00 0.00 49 1015.6
20260504230039 75 210 0.9 3.5 0.00 0.00 0.00 48 1015.4
20260504224538 75 175 2.6 6.1 0.00 0.00 0.00 47 1015.7
20260504223055 75 241 3.5 7.8 0.00 0.00 0.00 44 1015.7
20260504221535 76 146 0.9 7.8 0.00 0.00 0.00 45 1015.4
20260504220035 76 199 3.5 7.8 0.00 0.00 0.00 44 1015.7
20260504214539 76 207 1.7 7.0 0.00 0.00 0.00 44 1015.6
20260504213038 77 205 3.5 7.8 0.00 0.00 0.00 42 1015.5
20260504211604 77 223 4.3 8.7 0.00 0.00 0.00 41 1015.6
20260504210046 78 135 0.9 8.7 0.00 0.00 0.00 42 1015.8
20260504204542 77 193 4.3 7.0 0.00 0.00 0.00 44 1016.0
20260504203042 78 235 3.5 8.7 0.00 0.00 0.00 42 1016.0
20260504201538 77 210 2.6 11.3 0.00 0.00 0.00 41 1016.0
20260504200039 79 167 1.7 5.2 0.00 0.00 0.00 40 1016.1
20260504194549 79 241 1.7 5.2 0.00 0.00 0.00 37 1016.3
20260504193037 79 240 0.9 5.2 0.00 0.00 0.00 42 1016.4
20260504191544 79 68 1.7 7.8 0.00 0.00 0.00 37 1016.6
20260504190044 79 193 1.7 8.7 0.00 0.00 0.00 40 1016.8
20260504184547 78 156 3.5 8.7 0.00 0.00 0.00 37 1017.0
20260504183038 79 202 2.6 7.0 0.00 0.00 0.00 33 1017.2
20260504181537 79 188 1.7 4.3 0.00 0.00 0.00 34 1017.4
20260504180036 78 218 4.3 8.7 0.00 0.00 0.00 35 1017.4
20260504174544 79 201 1.7 5.2 0.00 0.00 0.00 35 1017.4
20260504173038 79 119 0.9 4.3 0.00 0.00 0.00 36 1017.3
20260504171540 78 209 0.9 8.7 0.00 0.00 0.00 38 1017.6